1311468628146,0.000142766
1311468688146,0.000143235
1311468748146,0.000142086
1311468808146,0.000143232
1311468868146,0.000143071
1311472228156,0.000142201
1311472288156,0.000141779
1311472348156,0.000141435
1311472408156,0.000141376
1311472468156,0.000143021
1311472528156,0.000143863
1311472588156,0.000142565
1311472648156,0.000141732
1311472708156,0.000144403
1311472768156,0.000143352
1311472828166,0.000142910
1311472888166,0.000142504
1311472948166,0.000143297
1311473008166,0.000144146
1311473068166,0.000144099
1311473128166,0.000144802
1311473188166,0.000143472
1311473248166,0.000144073
1311473308166,0.000142461
1311473368166,0.000143531
1311473428166,0.000143418
1311473488166,0.000143675
1311473548166,0.000143230
1311473608166,0.000141884
1311473668166,0.000143761
1311473728166,0.000143371
1311473788166,0.000142615
1311473848166,0.000143499
1311473908166,0.000143085
1311473968166,0.000143299
1311474028166,0.000142360
1311474088166,0.000140953
1311474148166,0.000140819
1311474208166,0.000142244
1311474268166,0.000143160
1311474328166,0.000141157
1311474388166,0.000141083
1311474448166,0.000141055
1311474508166,0.000140378
1311474568166,0.000141594
1311474628166,0.000140603
1311474688166,0.000141907
1311474748166,0.000143660
1311474808166,0.000142843
1311474868166,0.000141991
1311474928166,0.000141043
1311474988166,0.000141045
1311475048166,0.000140583
1311475108166,0.000143782
1311475168166,0.000141306
1311475228166,0.000139846
1311475288166,0.000140533
1311475348166,0.000140962
1311475408166,0.000142164
1311475468166,0.000139674
1311475528166,0.000142339
1311475588166,0.000140516
1311475648166,0.000142639
1311475708166,0.000140813
1311475768166,0.000143521
1311475828166,0.000143076
1311475888166,0.000142718
1311475948166,0.000141505
1311476008166,0.000141088
1311476068166,0.000141698
1311476128166,0.000140842
1311476188166,0.000140864
1311476248166,0.000141559
1311476308166,0.000140349
1311476368166,0.000140681
1311476428175,0.000141136
1311476488175,0.000142339
1311476548175,0.000142624
1311476608175,0.000141439
1311476668175,0.000140688
1311476728175,0.000141839
1311476788175,0.000140675
1311476848175,0.000139880
1311476908175,0.000141296
1311476968175,0.000140681
1311477028175,0.000140424
1311477088175,0.000140471
1311477148175,0.000142234
1311477208175,0.000140779
1311477268175,0.000140295
1311477328175,0.000142708
1311477388175,0.000142053
1311477448175,0.000140570
1311477508175,0.000140325
1311477568175,0.000140085
1311477628175,0.000141666
1311477688175,0.000143078
1311477748175,0.000141821
1311477808175,0.000141407
1311477868175,0.000140749
1311477928175,0.000139955
1311477988175,0.000141943
1311478048175,0.000141261
1311478108175,0.000141326
1311478168175,0.000141000
1311478228175,0.000139870
1311478288175,0.000140292
1311478348175,0.000140483
1311478408175,0.000140671
1311478468175,0.000140394
1311478528175,0.000138892
1311478588175,0.000140051
1311478648175,0.000141070
1311478708175,0.000140398
1311478768175,0.000141090
1311478828175,0.000140735
1311478888175,0.000140291
1311478948175,0.000141242
1311479008175,0.000140011
1311479068175,0.000139866
1311479128175,0.000141426
1311479188175,0.000141175
1311479248175,0.000140979
1311479308175,0.000140992
1311479368175,0.000140506
1311479428175,0.000141102
1311479488175,0.000141337
1311479548175,0.000140650
1311479608175,0.000140042
1311479668175,0.000140264
1311479728175,0.000142396
1311479788175,0.000140252
1311479848175,0.000140617
1311479908175,0.000140319
1311479968175,0.000139431
1311480028184,0.000141378
1311480088184,0.000141854
1311480148184,0.000139944
1311480208184,0.000139329
1311480268184,0.000139332
1311480328184,0.000140023
1311480388184,0.000140125
1311480448184,0.000139692
1311480508184,0.000140538
1311480568184,0.000138774
1311480628184,0.000139812
1311480688184,0.000139936
1311480748184,0.000140580
1311480808184,0.000139971
1311480868184,0.000139883
1311480928184,0.000138414
1311480988184,0.000139597
1311481048184,0.000139343
1311481108184,0.000139228
1311481168184,0.000140622
1311481228184,0.000140895
1311481288184,0.000140499
1311481348184,0.000140797
1311481408184,0.000140693
1311481468184,0.000139389
1311481528184,0.000140148
1311481588184,0.000141029
1311481648184,0.000141063
1311481708184,0.000140609
1311481768184,0.000140962
1311481828184,0.000142294
1311481888184,0.000143818
1311481948184,0.000143264
1311482008184,0.000142636
1311482068184,0.000142181
1311482128184,0.000142434
1311482188184,0.000141656
1311482248184,0.000143038
1311482308184,0.000142291
1311482368184,0.000142197
1311482428184,0.000143368
1311482488184,0.000142283
1311482548184,0.000141820
1311482608184,0.000143066
1311482668184,0.000141629
1311482728184,0.000141625
1311482788184,0.000142443
1311482848184,0.000143814
1311482908184,0.000141235
1311482968184,0.000141711
1311483028184,0.000141717
1311483088184,0.000141147
1311483148184,0.000141006
1311483208184,0.000138869
1311483268184,0.000140384
1311486628194,0.000141519
1311486688194,0.000140574
1311486748194,0.000141517
1311486808194,0.000139855
1311486868194,0.000141195
1311490228203,0.000141217
1311490288203,0.000141218
1311490348203,0.000140637
1311490408203,0.000141143
1311490468203,0.000139666
1311493828212,0.000140407
1311493888212,0.000139453
1311493948212,0.000138252
1311494008212,0.000141607
1311494068212,0.000139760
1311497428221,0.000140606
1311497488221,0.000140040
1311497548221,0.000139818
1311497608221,0.000139222
1311497668221,0.000138831
1311501028230,0.000139476
1311501088230,0.000138900
1311501148230,0.000140139
1311501208230,0.000140077
1311501268230,0.000140185
1311504628239,0.000141059
1311504688239,0.000139193
1311504748239,0.000141082
1311504808239,0.000140080
1311504868239,0.000138939
1311508228248,0.000140096
1311508288248,0.000140095
1311508348248,0.000137967
1311508408248,0.000138989
1311508468248,0.000138610
1311511828257,0.000138980
1311511888257,0.000139589
1311511948257,0.000141545
1311512008257,0.000140319
1311512068257,0.000138792
1311515428266,0.000138128
1311515488266,0.000138660
1311515548266,0.000138564
1311515608266,0.000139216
1311515668266,0.000140022
1311519028275,0.000140644
1311519088275,0.000139670
1311519148275,0.000139694
1311519208275,0.000141704
1311519268275,0.000139914
1311522628285,0.000137390
1311522688285,0.000137530
1311522748285,0.000137363
1311522808285,0.000136291
1311522868285,0.000138697
1311526228295,0.000140347
1311526288295,0.000140003
1311526348295,0.000140582
1311526408295,0.000142036
1311526468295,0.000140416
1311529828306,0.000139908
1311529888306,0.000141507
1311529948306,0.000142526
1311530008306,0.000141593
1311530068306,0.000142312
1311533428316,0.000144465
1311533488316,0.000142626
1311533548316,0.000142080
1311533608316,0.000141901
1311533668316,0.000143404
1311537028327,0.000142048
1311537088327,0.000140318
1311537148327,0.000142969
1311537208327,0.000141119
1311537268327,0.000142667
1311540628338,0.000143170
1311540688338,0.000142745
1311540748338,0.000143212
1311540808338,0.000143062
1311540868338,0.000141380
1311544228349,0.000141916
1311544288349,0.000141448
1311544348349,0.000140674
1311544408349,0.000141739
1311544468349,0.000143205
1311547828360,0.000140787
1311547888360,0.000142252
1311547948360,0.000140834
1311548008360,0.000143733
1311548068360,0.000140666
1311551428371,0.000144631
1311551488371,0.000140039
1311551548371,0.000142705
1311551608371,0.000142640
1311551668371,0.000143348
